Location: Drocourt
(49.0571°N, 1.7669°E)
Time: 15:51:28
(UTC+00:00)

Vanguard 1 Rocket - Pass Details

Date: 14 April 2024
Orbit: 651 x 4220 km, 34.3° (Epoch: 19 May)

Event Time Altitude Azimuth Distance (km) Brightness Sun altitude
Rises 21:12:24 0° 241° (WSW) 3,829 10.8 -21.4°
Reaches altitude 10° 21:14:49 10° 231° (SW) 3,164 10.2 -21.6°
Maximum altitude 21:22:00 36° 168° (SSE) 2,577 9.2 -22.4°
Enters shadow 21:24:35 32° 145° (SE) 2,983 9.4 -22.7°
